Regional Weather Roundup
Issued by NWS

Home | Current Version | Previous Version | Text Only | Print | Product List | Glossary On
Versions: 1 2 3 4 5 6 7 8 9 10 11 12 13 14 15 16 17 18 19 20 21 22 23 24 25 26 27 28 29 30 31 32 33 34 35 36 37 38 39 40 41 42 43 44 45 46 47 48 49 50
000
ASUS43 KFSD 161602
RWRSD

WEATHER ROUNDUP FOR SOUTH DAKOTA
NATIONAL WEATHER SERVICE SIOUX FALLS SD
1000 AM CST MON JAN 16 2017

NOTE: "FAIR" INDICATES FEW OR NO CLOUDS BELOW 12,000 FEET WITH NO
SIGNIFICANT WEATHER AND/OR OBSTRUCTIONS TO VISIBILITY.


SDZ001>005-009-010-012>017-161700-
NORTHWEST AND NORTH CENTRAL SOUTH DAKOTA

CITY           SKY/WX    TMP DP  RH WIND       PRES   REMARKS
BUFFALO          N/A     16   6  65 W9        30.02S WCI   4
FAITH            N/A     12   6  77 NW14      30.08R WCI  -3
MOBRIDGE       CLOUDY     0  -6  76 SE5       30.08R WCI -10
$$

SDZ012>016-024>037-041>051-057-063-072>074-161700-
SOUTHWEST AND SOUTH CENTRAL SOUTH DAKOTA

CITY           SKY/WX    TMP DP  RH WIND       PRES   REMARKS
RAPID CTY ARPT CLOUDY    27  12  53 NW14      30.08S WCI  16
PIERRE         CLOUDY     7   2  80 W8        30.08F WCI  -6
CUSTER         CLOUDY    30   3  31 NW5       30.04R WCI  25
ELLSWORTH AFB  CLOUDY    28  12  52 NW13      30.08R WCI  17
PHILIP         CLOUDY    14   7  73 W3        30.11R
PINE RIDGE     CLOUDY    16  14  92 CALM      30.09S
SPEARFISH      FAIR      25   9  50 W9        30.11R WCI  15
WINNER         CLOUDY    23  17  78 NW7       30.08S WCI  15
$$

SDZ004>011-016>023-039-040-161700-
NORTHEAST SOUTH DAKOTA

CITY           SKY/WX    TMP DP  RH WIND       PRES   REMARKS
ABERDEEN       CLOUDY     4  -2  76 CALM      30.10S
WATERTOWN      CLOUDY    11  10  96 CALM      30.05F FOG
BROOKINGS      CLOUDY    21  16  81 CALM      30.06S
SISSETON         N/A     22  18  85 W6        30.07S WCI  14
$$

SDZ017-020-022-023-036>040-048>070-161700-
SOUTHEAST SOUTH DAKOTA

CITY           SKY/WX    TMP DP  RH WIND       PRES   REMARKS
SIOUX FALLS    CLOUDY    26  21  81 NE6       30.07S WCI  19
HURON          CLOUDY    13   8  81 NW5       30.09F WCI   5
CHAMBERLAIN    CLOUDY    19  14  79 W7        30.08F WCI  10
MITCHELL       CLOUDY    20  17  88 N5        30.09F WCI  13
YANKTON        CLOUDY    30  27  86 N7        30.04S WCI  23
$$

ABBREVIATIONS USED IN REMARKS
   TC - TEMPERATURE IN CELSIUS
  WCI - WIND CHILL INDEX
   HX - HEAT INDEX
  VSB - VISIBILITY





USA.gov is the U.S. government's official web portal to all federal, state and local government web resources and services.